Regional Weather Roundup
Issued by NWS

Home | Current Version | Previous Version | Text Only | Print | Product List | Glossary Off
Versions: 1 2 3 4 5 6 7 8 9 10 11 12 13 14 15 16 17 18 19 20 21 22 23 24 25 26 27

000
ASUS45 KBOI 211110
RWRID

IDAHO REGIONAL WEATHER ROUNDUP
NATIONAL WEATHER SERVICE BOISE ID
500 AM MDT SAT OCT 21 2017

NOTE: "FAIR" INDICATES FEW OR NO CLOUDS BELOW 12000 FEET
WITH NO SIGNIFICANT WEATHER AND/OR OBSTRUCTIONS TO VISIBILITY

IDZ012-014-211200-
SOUTHWEST IDAHO


CITY           SKY/WX    TMP DP  RH WIND       PRES   REMARKS
BOISE          CLEAR     34  28  79 CALM      30.10R
CALDWELL       CLEAR     34  29  82 CALM      30.11R
MOUNTAIN HOME  CLEAR     32  26  81 CALM      30.11R
$$

IDZ016-017-211200-
SOUTHCENTRAL IDAHO


CITY           SKY/WX    TMP DP  RH WIND       PRES   REMARKS
BURLEY         MOCLDY    36  28  73 SW13      30.08R WCI  27
JEROME         PTCLDY    33  30  88 S8        30.09R WCI  26
TWIN FALLS     PTCLDY    33  28  81 SW13      30.09R WCI  24
$$

IDZ019>023-211200-
SOUTHEAST IDAHO


CITY           SKY/WX    TMP DP  RH WIND       PRES   REMARKS
IDAHO FALLS    CLOUDY    32  28  85 SW17      30.03R WCI  21
POCATELLO      CLEAR     34  28  79 SW10      30.06R WCI  26
REXBURG        PTCLDY    31  28  89 SW12      30.02R WCI  22
$$

IDZ006-010-011-018-031-032-211200-
CENTRAL IDAHO MOUNTAINS


CITY           SKY/WX    TMP DP  RH WIND       PRES   REMARKS
MCCALL         PTCLDY    28  26  92 SW3       30.01R
HAILEY         PTCLDY    27  23  86 NW7       30.05R WCI  19
STANLEY          N/A     22  19  89 S3        30.01R
SALMON         CLOUDY    37  32  82 SW9       30.01R WCI  30
CHALLIS        PTCLDY    34  25  69 E3        29.99R
$$

IDZ002-004-006-007-026-211200-
NORTHERN IDAHO


CITY           SKY/WX    TMP DP  RH WIND       PRES   REMARKS
LEWISTON       CLEAR     45  32  60 S6        30.01R
LOWELL           N/A     41  40  96 CALM      30.06R
COEUR D`ALENE  MOCLDY    39  33  79 S12       29.97R WCI  32
MULLAN PASS    MIX PCPN  26  22  84 VRB6      29.89R WCI  19
$$




USA.gov is the U.S. government's official web portal to all federal, state and local government web resources and services.